Orbital Elements at Epoch 2459000.5 (2020-May-31.0) TDB
Reference: JPL 16 (heliocentric ecliptic J2000)
Element | Value | Uncertainty (1-sigma) | Units |
e | .07411138208726081 | 6.4097e-08 | |
a | 2.610160084655661 | 2.5802e-08 | au |
q | 2.416717513312828 | 1.6818e-07 | au |
i | 6.778969376948506 | 5.6408e-06 | deg |
node | 71.09370160836541 | 5.4091e-05 | deg |
peri | 327.7685276675155 | 7.3172e-05 | deg |
M | 310.0882330847284 | 4.4015e-05 | deg |
tp | 2459214.050005347965 (2020-Dec-30.55000535) | 0.00018673 | TDB |
period | 1540.278108282012 4.22 | 2.2839e-05 6.253e-08 | d yr |
n | .2337240255927127 | 3.4657e-09 | deg/d |
Q | 2.803602655998493 | 2.7715e-08 | au |
|
| | Orbit Determination Parameters
Additional Information
|